This demonstration page uses our WeatherBlox Daily Observations layout. Learn more.

Left ArrowRight Arrow

31.31129, -92.44514

Hourly Observations for December 26, 2020

Temp ( °F °C ) Dew Point ( °F °C ) Humidity (%) Winds ( mph kmh ) Pressure ( in mb ) Visibility ( mi km ) Precip ( " mm )
12:53 am 00:53 Clear 33 0.6 29 -1.7 85 85 SE 3 6 30.26 1025 10 16 0.00 0.00
1:53 am 01:53 Clear 33 0.6 30 -1.1 89 89 SE 3 6 30.26 1025 10 16 0.00 0.00
2:53 am 02:53 Clear 33 0.6 26 -3.3 75 75 ESE 6 9 30.26 1025 10 16 0.00 0.00
3:53 am 03:53 Clear 33 0.6 27 -2.8 78 78 SE 3 6 30.25 1024 10 16 0.00 0.00
4:53 am 04:53 Clear 32 0 27 -2.8 82 82 ESE 3 6 30.25 1024 10 16 0.00 0.00
5:53 am 05:53 Clear 31 -0.6 26 -3.3 82 82 ESE 5 7 30.25 1025 10 16 0.00 0.00
6:53 am 06:53 Clear 32 0 27 -2.8 82 82 E 3 6 30.27 1025 10 16 0.00 0.00
7:53 am 07:53 Sunny 33 0.6 29 -1.7 85 85 SE 3 6 30.27 1025 10 16 0.00 0.00
8:53 am 08:53 Sunny 39 3.9 31 -0.6 73 73 SSE 6 9 30.28 1026 10 16 0.00 0.00
9:53 am 09:53 Sunny 45 7.2 30 -1.1 56 56 SSE 9 15 30.27 1025 10 16 0.00 0.00
10:53 am 10:53 Sunny 51 10.6 31 -0.6 46 46 SSE 8 13 30.26 1025 10 16 0.00 0.00
11:53 am 11:53 Sunny 55 12.8 34 1.1 45 45 SE 9 15 30.22 1023 10 16 0.00 0.00
12:53 pm 12:53 Sunny 59 15 34 1.1 39 39 SSW 6 9 30.19 1022 10 16 0.00 0.00
1:53 pm 13:53 Sunny 61 16.1 35 1.7 38 38 SSW 5 7 30.15 1021 10 16 0.00 0.00
2:53 pm 14:53 Sunny 62 16.7 37 2.8 40 40 S 7 11 30.14 1021 10 16 0.00 0.00
3:53 pm 15:53 Sunny 61 16.1 37 2.8 41 41 S 9 15 30.13 1020 10 16 0.00 0.00
4:53 pm 16:53 Sunny 57 13.9 41 5 55 55 SSE 6 9 30.13 1020 10 16 0.00 0.00
5:53 pm 17:53 Clear 50 10 37 2.8 61 61 SSE 8 13 30.13 1020 10 16 0.00 0.00
6:53 pm 18:53 Clear 49 9.4 38 3.3 66 66 SSE 6 9 30.14 1021 10 16 0.00 0.00
7:53 pm 19:53 Clear 47 8.3 37 2.8 69 69 SSE 7 11 30.14 1021 10 16 0.00 0.00
8:53 pm 20:53 Clear 42 5.6 36 2.2 79 79 SSE 8 13 30.13 1020 10 16 0.00 0.00
9:53 pm 21:53 Clear 42 5.6 36 2.2 79 79 SSE 8 13 30.14 1021 10 16 0.00 0.00
10:53 pm 22:53 Clear 44 6.7 37 2.8 76 76 S 5 7 30.14 1021 10 16 0.00 0.00
11:53 pm 23:53 Clear 41 5 34 1.1 76 76 SE 5 7 30.12 1020 10 16 0.00 0.00

Powered by AerisWeather